[[{"header":{"parameterUnit":"m.s-1","parameterCategory":1,"la1":30.2991,"la2":30.254,"lo1":-89.0895,"lo2":-89.0444,"dy":0.0017,"dx":0.0017,"nx":28,"ny":28,"refTime":"2025-06-04T09:00:00:Z","depth":0,"parameterNumber":2,"parameterNumberName":"U-component_of_WINDS"},"data":[0,0,0,0,0,0,0,0,0,0,0,0,0,0,0,0,0,0,0,0,0,0,0,0,0,0,0,0,0,0,0,0,0,0,0,0,0,0,0,0,0,0,0,0,0,0,0,0,0,0,0,0,0,0,0,0,0,0,-2.2148,-2.2149,0,-2.2193,-2.2193,-2.2194,-2.2199,-2.2198,-2.2198,-2.2197,-2.2242,-2.2243,-2.2245,0,0,0,0,0,0,0,0,0,0,0,0,0,-2.2065,-2.2067,-2.2148,-2.2149,-2.2149,-2.2193,-2.2193,-2.2194,-2.2199,-2.2198,-2.2198,-2.2197,-2.2241,-2.2243,-2.2245,0,0,0,0,0,0,0,0,0,0,0,0,0,-2.2105,-2.2067,-2.2148,-2.2157,-2.2158,-2.2193,-2.2193,-2.2194,-2.2199,-2.2198,-2.2198,-2.2197,-2.224,-2.2243,-2.2245,-2.2273,0,0,-2.2252,-2.2253,0,0,0,0,0,0,0,0,-2.2103,-2.2108,-2.2155,-2.2156,-2.2158,-2.219,-2.218,-2.222,-2.2199,-2.2183,-2.2197,-2.2197,-2.2225,-2.2228,-2.2238,-2.2275,-2.2277,-2.2253,-2.2254,-2.2255,-2.2256,0,0,0,0,0,0,0,-2.21,-2.2106,-2.2166,-2.2156,-2.2157,-2.2158,-2.2163,-2.2188,-2.2207,-2.2185,-2.2185,-2.2191,-2.2225,-2.2236,-2.2239,-2.2278,-2.2252,-2.2255,-2.2256,-2.2257,-2.2339,-2.234,0,0,0,0,0,0,-2.2096,-2.2104,-2.2164,-2.2167,-2.2128,-2.216,-2.2166,-2.218,-2.2207,-2.221,-2.2191,-2.2191,-2.2232,-2.2236,-2.2241,-2.2275,-2.2255,-2.2257,-2.2259,-2.2338,-2.2339,-2.234,0,0,0,0,0,0,-2.2094,-2.2101,-2.2162,-2.2136,-2.2143,-2.2162,-2.2178,-2.2181,-2.2192,-2.2212,-2.2215,-2.2198,-2.2232,-2.2237,-2.2265,-2.2276,-2.2258,-2.226,-2.2337,-2.2339,-2.234,-2.2343,0,0,0,0,0,0,-2.2091,-2.21,-2.2112,-2.2136,-2.2145,-2.2186,-2.2179,-2.2183,-2.2196,-2.2196,-2.2219,-2.2223,-2.2232,-2.2261,-2.2267,-2.2279,-2.2262,-2.2336,-2.2338,-2.2339,-2.2342,-2.2344,-2.2346,0,0,0,0,0,-2.2089,-2.2111,-2.2112,-2.2119,-2.2159,-2.2187,-2.2192,-2.2202,-2.2197,-2.2208,-2.2221,-2.2222,-2.2274,-2.2264,-2.2271,-2.2284,-2.2336,-2.2337,-2.2339,-2.2341,-2.2343,-2.2346,0,0,0,0,0,0,-2.2087,-2.2114,-2.2116,-2.2147,-2.2165,-2.2188,-2.2202,-2.2205,-2.2225,-2.2224,-2.2235,-2.224,-2.2267,-2.2278,-2.2267,-2.2312,-2.2304,-2.2307,-2.2303,-2.2306,-2.2308,-2.2304,-2.2264,0,0,0,0,0,-2.209,-2.2111,-2.2133,-2.2158,-2.2167,-2.2183,-2.2196,-2.2202,-2.2221,-2.2228,-2.2243,-2.2261,-2.2281,-2.2294,-2.2314,-2.2344,-2.2348,-2.2356,-2.2358,-2.2359,-2.2361,-2.2377,-2.238,-2.2346,-2.2346,-2.2345,0,0,-2.2097,-2.2114,-2.2127,-2.2158,-2.2173,-2.2193,-2.2189,-2.2212,-2.2227,-2.2231,-2.2258,-2.227,-2.229,-2.2319,-2.2332,-2.2329,-2.2372,-2.2361,-2.2362,-2.2364,-2.2379,-2.2382,-2.2385,-2.2347,-2.2346,-2.2346,0,0,-2.2119,-2.2135,-2.2157,-2.2172,-2.2194,-2.2205,-2.221,-2.2233,-2.2241,-2.2268,-2.2272,-2.229,-2.2325,-2.234,-2.2351,-2.2379,-2.2381,-2.2386,-2.2395,-2.241,-2.2413,-2.2415,-2.2425,-2.2428,-2.2388,-2.2388,-2.2388,0,-2.2125,-2.2157,-2.2168,-2.219,-2.2203,-2.2209,-2.2231,-2.2245,-2.2272,-2.2281,-2.2277,-2.2321,-2.2336,-2.2367,-2.2374,-2.2383,-2.2389,-2.2382,-2.2412,-2.2414,-2.2417,-2.2426,-2.2429,-2.2388,-2.2388,-2.2388,-2.2388,0,-2.2162,-2.2183,-2.2198,-2.2225,-2.224,-2.2262,-2.2276,-2.229,-2.2295,-2.2306,-2.2333,-2.2351,-2.2374,-2.2382,-2.2387,-2.2414,-2.2411,-2.241,-2.2402,-2.242,-2.2429,-2.2432,-2.2389,-2.2389,-2.2389,-2.2388,0,0,-2.2184,-2.2217,-2.2222,-2.2234,-2.2259,-2.2276,-2.2297,-2.2321,-2.2332,-2.2351,-2.2369,-2.2398,-2.2397,-2.241,-2.2417,-2.243,-2.245,-2.2427,-2.2428,-2.243,-2.248,-2.248,-2.2484,-2.2452,-2.2452,-2.2453,-2.2478,0,-2.2209,-2.2248,-2.2259,-2.2292,-2.2312,-2.2318,-2.2336,-2.2353,-2.2364,-2.2382,-2.2393,-2.2414,-2.2411,-2.2419,-2.2433,-2.2445,-2.246,-2.2443,-2.2468,-2.2468,-2.2461,-2.2488,-2.2489,-2.2511,-2.2481,-2.2482,-2.2482,0,-2.2243,-2.2262,-2.2298,-2.2319,-2.2328,-2.2345,-2.2367,-2.2384,-2.2403,-2.241,-2.2425,-2.2431,-2.2453,-2.2445,-2.2475,-2.2464,-2.2474,-2.2482,-2.2483,-2.2485,-2.2476,-2.249,-2.2519,-2.2522,-2.2487,-2.2487,-2.2487,0,-2.2254,-2.229,-2.2315,-2.2325,-2.2352,-2.2363,-2.2375,-2.2393,-2.2406,-2.2425,-2.2434,-2.2455,-2.2466,-2.2482,-2.2493,-2.2487,-2.2522,-2.2515,-2.2527,-2.2527,-2.2534,-2.2533,-2.2564,-2.2542,-2.2542,-2.2542,-2.2542,0,-2.2281,-2.2301,-2.2321,-2.2336,-2.2359,-2.2371,-2.2394,-2.2406,-2.2422,-2.244,-2.2446,-2.2462,-2.2476,-2.2494,-2.2502,-2.2526,-2.2531,-2.2536,-2.2538,-2.2535,-2.2534,-2.2542,-2.254,-2.2543,-2.2543,-2.2543,-2.2543,0,-2.2297,-2.2311,-2.2339,-2.2362,-2.2368,-2.2384,-2.2403,-2.2418,-2.2429,-2.2451,-2.2457,-2.2473,-2.2495,-2.2507,-2.2534,-2.254,-2.2565,-2.2567,-2.2559,-2.2559,-2.257,-2.2569,-2.2606,-2.2611,-2.2587,-2.2587,-2.2587,0,-2.2313,-2.2329,-2.2353,-2.2366,-2.2377,-2.2397,-2.241,-2.2423,-2.2436,-2.2459,-2.2471,-2.2493,-2.251,-2.2544,-2.2558,-2.2578,-2.258,-2.2592,-2.2583,-2.2579,-2.2579,-2.2578,-2.2579,-2.2593,-2.2593,-2.2593,-2.2593,0,-2.2338,-2.2344,-2.2363,-2.2385,-2.24,-2.2418,-2.2435,-2.2444,-2.246,-2.2474,-2.2496,-2.251,-2.2537,-2.2558,-2.258,-2.2591,-2.2595,-2.2596,-2.26,-2.2597,-2.2591,-2.2593,-2.2562,-2.2595,-2.2595,-2.2595,-2.2595,-2.2595,-2.2354,-2.2368,-2.2388,-2.2409,-2.2423,-2.2439,-2.2454,-2.2467,-2.2485,-2.2508,-2.2515,-2.2537,-2.2555,-2.2585,-2.2596,-2.2614,-2.2612,-2.2618,-2.2619,-2.262,-2.262,-2.2589,-2.2618,-2.2618,-2.2618,-2.2618,-2.2618,0,-2.2379,-2.2392,-2.2411,-2.2435,-2.2451,-2.2454,-2.2473,-2.2486,-2.2506,-2.2523,-2.254,-2.2565,-2.2585,-2.2601,-2.2622,-2.2633,-2.2635,-2.2638,-2.2637,-2.2639,-2.2621,-2.2615,-2.2636,-2.2636,-2.2636,-2.2636,-2.2636,-2.2636,-2.2394,-2.2418,-2.2426,-2.2457,-2.247,-2.2492,-2.2503,-2.2517,-2.2531,-2.2558,-2.2575,-2.2586,-2.2602,-2.2624,-2.2643,-2.2647,-2.2654,-2.2656,-2.266,-2.2643,-2.2641,-2.2639,-2.2633,-2.2658,-2.2658,-2.2677,-2.2678,-2.2678]},{"header":{"parameterUnit":"m.s-1","parameterCategory":1,"la1":30.2991,"la2":30.254,"lo1":-89.0895,"lo2":-89.0444,"dy":0.0017,"dx":0.0017,"nx":28,"ny":28,"refTime":"2025-06-04T09:00:00:Z","depth":0,"parameterNumber":3,"parameterNumberName":"V-component_of_WINDS"},"data":[0,0,0,0,0,0,0,0,0,0,0,0,0,0,0,0,0,0,0,0,0,0,0,0,0,0,0,0,0,0,0,0,0,0,0,0,0,0,0,0,0,0,0,0,0,0,0,0,0,0,0,0,0,0,0,0,0,0,2.5237,2.5237,0,2.5299,2.53,2.53,2.5281,2.528,2.5279,2.5278,2.5338,2.5341,2.5343,0,0,0,0,0,0,0,0,0,0,0,0,0,2.5097,2.51,2.5236,2.5237,2.5238,2.5299,2.53,2.5301,2.5282,2.528,2.5279,2.5277,2.5337,2.534,2.5344,0,0,0,0,0,0,0,0,0,0,0,0,0,2.5159,2.5101,2.5236,2.5236,2.5237,2.5299,2.53,2.5301,2.5282,2.528,2.5278,2.5276,2.5336,2.534,2.5344,2.5409,0,0,2.5357,2.5359,0,0,0,0,0,0,0,0,2.5155,2.5164,2.5235,2.5236,2.5237,2.5281,2.5273,2.5337,2.5283,2.5265,2.5278,2.5275,2.532,2.5325,2.5341,2.5412,2.5414,2.5357,2.536,2.5362,2.5363,0,0,0,0,0,0,0,2.5151,2.5161,2.5261,2.5236,2.5237,2.5232,2.5238,2.5285,2.5302,2.5266,2.5265,2.5273,2.532,2.5337,2.5343,2.5415,2.5357,2.5361,2.5364,2.5365,2.5543,2.5545,0,0,0,0,0,0,2.5147,2.5157,2.5259,2.5263,2.5191,2.5236,2.5243,2.5268,2.5302,2.5305,2.5274,2.5272,2.5331,2.5338,2.5345,2.5423,2.5362,2.5366,2.5368,2.554,2.5543,2.5545,0,0,0,0,0,0,2.5144,2.5156,2.5257,2.521,2.5222,2.524,2.5269,2.5271,2.5288,2.5308,2.5311,2.5289,2.533,2.5339,2.5394,2.5425,2.5368,2.5371,2.5538,2.5541,2.5544,2.558,0,0,0,0,0,0,2.514,2.5155,2.5181,2.5211,2.5225,2.5305,2.5271,2.5273,2.5296,2.5293,2.5323,2.5326,2.5329,2.5387,2.5398,2.543,2.5375,2.5535,2.5539,2.5543,2.5576,2.5584,2.5591,0,0,0,0,0,2.5135,2.5187,2.5182,2.5194,2.5258,2.5307,2.5315,2.5319,2.5298,2.5324,2.5337,2.5325,2.542,2.5393,2.5405,2.5438,2.5533,2.5538,2.5543,2.5573,2.5583,2.5591,0,0,0,0,0,0,2.5159,2.5191,2.5186,2.525,2.5276,2.5304,2.5336,2.5329,2.5361,2.5357,2.5359,2.5366,2.5423,2.5436,2.5405,2.5503,2.5473,2.5481,2.5492,2.5502,2.5509,2.5504,2.5378,0,0,0,0,0,2.5172,2.5211,2.5236,2.529,2.5304,2.5318,2.534,2.5341,2.5368,2.5378,2.5395,2.5421,2.5457,2.548,2.5514,2.5578,2.5584,2.5607,2.5615,2.5621,2.5627,2.5662,2.5672,2.5561,2.5561,2.5561,0,0,2.5198,2.5221,2.5245,2.5296,2.5316,2.5355,2.5327,2.537,2.5399,2.5384,2.5437,2.5451,2.548,2.554,2.5567,2.5552,2.5659,2.5627,2.5632,2.5634,2.5668,2.5678,2.5688,2.5565,2.5564,2.5564,0,0,2.5266,2.5288,2.5335,2.5357,2.5389,2.5398,2.541,2.5439,2.5448,2.5502,2.5492,2.5526,2.5587,2.5608,2.5627,2.5705,2.5694,2.5716,2.5754,2.5788,2.5797,2.5805,2.5832,2.5842,2.5722,2.5722,2.5722,0,2.5295,2.5355,2.536,2.5404,2.5426,2.5417,2.5464,2.5485,2.5526,2.5541,2.5525,2.5602,2.5621,2.5686,2.5705,2.572,2.5733,2.5712,2.5795,2.5803,2.581,2.5836,2.5847,2.5724,2.5724,2.5724,2.5723,0,2.5388,2.543,2.5464,2.5506,2.5532,2.5577,2.5588,2.5614,2.5613,2.5624,2.5679,2.5701,2.5739,2.5755,2.5754,2.582,2.581,2.5795,2.5765,2.5823,2.5848,2.5858,2.5727,2.5727,2.5726,2.5725,0,0,2.5472,2.5517,2.5529,2.5548,2.5584,2.5615,2.566,2.5699,2.5721,2.575,2.5787,2.584,2.5827,2.5848,2.5849,2.5879,2.5939,2.586,2.5861,2.5874,2.6013,2.6024,2.6035,2.5933,2.5935,2.5936,2.601,0,2.5543,2.5623,2.563,2.5701,2.574,2.5732,2.5771,2.5796,2.5808,2.5841,2.5853,2.589,2.587,2.5883,2.5912,2.5926,2.5967,2.592,2.5966,2.5968,2.5959,2.6048,2.606,2.6128,2.602,2.6022,2.6023,0,2.5636,2.567,2.5746,2.5776,2.5793,2.5828,2.5864,2.5897,2.5925,2.5931,2.5956,2.5953,2.5998,2.5968,2.603,2.5998,2.6017,2.6027,2.6029,2.6033,2.5998,2.6053,2.615,2.616,2.6038,2.6037,2.6036,0,2.5689,2.5753,2.5807,2.5823,2.5861,2.5885,2.5902,2.5929,2.5952,2.5983,2.5998,2.6035,2.6054,2.6082,2.6089,2.6066,2.615,2.612,2.6156,2.6156,2.6173,2.6172,2.6273,2.6187,2.6187,2.6187,2.6186,0,2.5767,2.5814,2.5831,2.5864,2.5916,2.5923,2.5974,2.5989,2.6013,2.6048,2.6043,2.6076,2.6083,2.6117,2.6123,2.6173,2.6182,2.6188,2.6188,2.6188,2.6187,2.62,2.6195,2.6189,2.6189,2.6188,2.6188,0,2.5835,2.5849,2.5907,2.5938,2.5947,2.5984,2.6009,2.6041,2.6052,2.6097,2.6107,2.6124,2.6164,2.6175,2.6222,2.6225,2.6285,2.6281,2.6275,2.6275,2.631,2.6306,2.6423,2.6438,2.6342,2.6343,2.6344,0,2.5884,2.592,2.5955,2.5979,2.5997,2.6035,2.6059,2.6067,2.6093,2.6128,2.6155,2.6195,2.6227,2.6291,2.6307,2.6343,2.634,2.6379,2.6345,2.6344,2.634,2.6338,2.6341,2.6384,2.6385,2.6386,2.6387,0,2.5969,2.5974,2.601,2.6048,2.6077,2.6108,2.6137,2.6156,2.6168,2.6196,2.6238,2.6263,2.6312,2.6351,2.6388,2.6404,2.6397,2.6398,2.6408,2.6407,2.6402,2.6405,2.6292,2.6395,2.6394,2.6393,2.6393,2.6393,2.6028,2.606,2.609,2.613,2.6153,2.618,2.6211,2.6227,2.6262,2.6304,2.6306,2.6351,2.6379,2.6428,2.6446,2.6481,2.6469,2.6483,2.6487,2.649,2.6493,2.6397,2.6487,2.6487,2.6487,2.6487,2.6487,0,2.6112,2.6131,2.6168,2.621,2.6241,2.6234,2.6266,2.6292,2.6332,2.636,2.6392,2.644,2.6478,2.6498,2.6535,2.6559,2.6557,2.6569,2.6567,2.6571,2.6502,2.6489,2.657,2.657,2.657,2.657,2.657,2.657,2.6159,2.6213,2.6222,2.6286,2.6305,2.635,2.6369,2.6394,2.6416,2.647,2.6502,2.6515,2.6539,2.6579,2.6614,2.6619,2.6632,2.6645,2.6649,2.6584,2.6575,2.6567,2.6555,2.6649,2.6649,2.6714,2.6715,2.6715]}]]